Location: Haram ta Haram Freeway
(35.0583°N, 51.4202°E)
Time: 21:38:23
(UTC+04:30)

Hubble Space Telescope - Pass Details

Date: 28 July 2021
Orbit: 535 x 539 km, 28.5° (Epoch: 18 September)

Event Time Altitude Azimuth Distance (km) Brightness Sun altitude
Rises 21:16:11 0° 257° (WSW) 2,666 5.0 -12.6°
Reaches altitude 10° 21:18:37 10° 247° (WSW) 1,775 3.9 -13.0°
Maximum altitude 21:22:16 31° 185° (S) 943 1.7 -13.6°
Enters shadow 21:23:58 22° 143° (SE) 1,174 1.9 -13.9°
